DW6757 Weather Reports


Display with metric or nautical units.
time (UTC)temp
F
wind
direction
speed
MPH
gust
MPH
rain 1hr
in
rain 24hr
in
rain mn
in
humidity
%
barometer
mb
20260507195504 68 30 6.0 13.0 0.00 0.00 0.00 73 1015.6
20260507195006 68 34 5.0 12.0 0.00 0.00 0.00 74 1015.6
20260507194525 67 40 6.0 12.0 0.00 0.00 0.00 75 1015.5
20260507194004 67 43 6.0 12.0 0.00 0.00 0.00 74 1015.2
20260507193505 67 39 6.0 13.0 0.00 0.00 0.00 74 1015.5
20260507193004 67 37 5.0 13.0 0.00 0.00 0.00 74 1015.9
20260507192504 67 41 5.0 11.0 0.00 0.00 0.00 75 1016.1
20260507192004 66 39 5.0 14.0 0.00 0.00 0.00 75 1016.5
20260507191505 66 47 5.0 14.0 0.00 0.00 0.00 75 1016.3
20260507191004 66 46 6.0 13.0 0.00 0.00 0.00 76 1016.3
20260507190504 66 38 6.0 13.0 0.00 0.00 0.00 75 1016.4
20260507190025 66 39 5.0 13.0 0.00 0.00 0.00 75 1016.4
20260507185504 66 35 4.0 9.0 0.00 0.00 0.00 76 1016.7
20260507185004 66 33 4.0 11.0 0.00 0.00 0.00 77 1017.0
20260507184504 66 24 4.0 11.0 0.00 0.00 0.00 77 1017.2
20260507184004 66 12 4.0 10.0 0.00 0.00 0.00 76 1017.6
20260507183505 66 14 3.0 7.0 0.00 0.00 0.00 76 1017.7
20260507183004 66 33 4.0 11.0 0.00 0.00 0.00 76 1017.5
20260507182504 66 39 5.0 11.0 0.00 0.00 0.00 76 1017.3
20260507182025 66 36 5.0 11.0 0.00 0.00 0.00 76 1017.2
20260507181504 66 53 6.0 13.0 0.00 0.00 0.00 77 1017.1
20260507181005 66 63 6.0 13.0 0.00 0.00 0.00 77 1017.0
20260507180504 66 50 5.0 12.0 0.00 0.00 0.00 77 1016.9
20260507180004 66 43 5.0 12.0 0.00 0.00 0.00 77 1016.9
20260507175506 65 53 5.0 14.0 0.00 0.00 0.00 78 1017.1
20260507175025 65 51 5.0 14.0 0.00 0.00 0.00 79 1017.1
20260507174504 65 47 4.0 13.0 0.00 0.00 0.00 80 1017.1
20260507174004 64 40 4.0 12.0 0.00 0.00 0.00 80 1017.2
20260507173504 64 40 6.0 12.0 0.00 0.00 0.00 79 1017.5
20260507173005 64 41 5.0 12.0 0.00 0.00 0.00 79 1017.8
20260507172504 64 32 5.0 13.0 0.00 0.00 0.00 79 1017.8
20260507172004 64 32 6.0 13.0 0.00 0.00 0.00 80 1017.6
20260507171504 64 34 7.0 14.0 0.00 0.00 0.00 80 1017.8
20260507171004 64 35 6.0 14.0 0.00 0.00 0.00 79 1017.9
20260507170526 64 36 6.0 11.0 0.00 0.00 0.00 80 1018.0
20260507170005 64 36 6.0 13.0 0.00 0.00 0.00 80 1017.9
20260507165504 64 33 6.0 13.0 0.00 0.00 0.00 80 1017.8
20260507165004 63 32 6.0 11.0 0.00 0.00 0.00 81 1017.9
20260507164504 63 33 6.0 14.0 0.00 0.00 0.00 82 1017.9
20260507164004 63 28 6.0 14.0 0.00 0.00 0.00 82 1017.8
20260507163504 63 29 6.0 13.0 0.00 0.00 0.00 82 1017.8
20260507163025 63 31 5.0 13.0 0.00 0.00 0.00 82 1017.9
20260507162504 62 31 6.0 16.0 0.00 0.00 0.00 83 1017.7
20260507162004 62 34 6.0 16.0 0.00 0.00 0.00 83 1017.8
20260507161504 62 32 6.0 12.0 0.00 0.00 0.00 83 1017.8
20260507161005 62 31 6.0 12.0 0.00 0.00 0.00 83 1017.7
20260507160504 62 33 6.0 14.0 0.00 0.00 0.00 83 1017.6
20260507160006 62 26 7.0 15.0 0.00 0.00 0.00 83 1017.7
20260507155504 62 20 7.0 15.0 0.00 0.00 0.00 83 1017.6
20260507155005 62 27 6.0 14.0 0.00 0.00 0.00 84 1017.6
20260507154504 62 28 7.0 14.0 0.00 0.00 0.00 84 1017.5
20260507154004 62 29 6.0 11.0 0.00 0.00 0.00 84 1017.7
20260507153504 62 32 6.0 11.0 0.00 0.00 0.00 85 1017.6
20260507153004 62 31 6.0 14.0 0.00 0.00 0.00 85 1017.6
20260507152504 62 24 7.0 16.0 0.00 0.00 0.00 84 1017.7
20260507152004 61 24 7.0 16.0 0.00 0.00 0.00 84 1017.7
20260507151526 62 30 7.0 13.0 0.00 0.00 0.00 85 1017.7
20260507151004 62 31 6.0 13.0 0.00 0.00 0.00 85 1017.1
20260507150525 61 27 5.0 11.0 0.00 0.00 0.00 86 1017.1
20260507150005 61 21 5.0 12.0 0.00 0.00 0.00 85 1017.3
20260507145504 61 18 5.0 14.0 0.00 0.00 0.00 85 1017.4
20260507145005 61 14 4.0 14.0 0.00 0.00 0.00 84 1017.5
20260507144505 62 13 6.0 16.0 0.00 0.00 0.00 85 1017.3
20260507144025 62 11 6.0 19.0 0.00 0.00 0.00 84 1017.3
20260507143504 62 10 7.0 19.0 0.00 0.00 0.00 84 1017.4
20260507143025 62 14 6.0 15.0 0.00 0.00 0.00 84 1017.2
20260507142504 62 21 5.0 13.0 0.00 0.00 0.00 85 1017.0
20260507142004 61 17 5.0 13.0 0.00 0.00 0.00 85 1016.9
20260507141504 61 10 5.0 12.0 0.00 0.00 0.00 86 1017.1
20260507141004 61 16 6.0 13.0 0.00 0.00 0.00 85 1017.1
20260507140504 61 17 5.0 13.0 0.00 0.00 0.00 85 1017.3
20260507140004 61 13 4.0 10.0 0.00 0.00 0.00 86 1017.6
20260507135504 61 13 4.0 10.0 0.00 0.00 0.00 86 1017.3
20260507135004 61 12 4.0 10.0 0.00 0.00 0.00 86 1017.3
20260507134505 61 15 5.0 13.0 0.00 0.00 0.00 86 1017.5
20260507134004 61 18 5.0 13.0 0.00 0.00 0.00 86 1017.3
20260507133504 61 19 5.0 12.0 0.00 0.00 0.00 86 1017.4
20260507133004 60 17 5.0 13.0 0.00 0.00 0.00 87 1017.2
20260507132504 60 15 5.0 13.0 0.00 0.00 0.00 86 1017.0
20260507132005 60 15 4.0 13.0 0.00 0.00 0.00 87 1017.0
20260507131504 60 15 5.0 14.0 0.00 0.00 0.00 87 1016.9
20260507131004 60 18 5.0 15.0 0.00 0.00 0.00 87 1017.1
20260507130511 60 21 5.0 15.0 0.00 0.00 0.00 87 1016.9
20260507130005 60 13 5.0 11.0 0.00 0.00 0.00 87 1016.9
20260507125504 60 14 5.0 12.0 0.00 0.00 0.00 86 1017.1
20260507125025 61 27 5.0 12.0 0.00 0.00 0.00 86 1016.9
20260507124504 61 27 5.0 12.0 0.00 0.00 0.00 86 1016.9
20260507124026 61 23 5.0 12.0 0.00 0.00 0.00 85 1016.9
20260507123504 61 30 4.0 12.0 0.00 0.00 0.00 85 1017.1
20260507123004 61 35 4.0 12.0 0.00 0.00 0.00 84 1017.0
20260507122505 62 36 5.0 11.0 0.00 0.00 0.00 84 1016.9
20260507122005 62 33 5.0 13.0 0.00 0.00 0.00 83 1016.7
20260507121504 62 30 6.0 13.0 0.00 0.00 0.00 83 1016.7
20260507121005 62 28 5.0 15.0 0.00 0.00 0.00 83 1016.5
20260507120504 62 29 6.0 15.0 0.00 0.00 0.00 82 1016.5
20260507120005 62 24 7.0 15.0 0.00 0.00 0.00 82 1016.2
20260507115504 62 20 6.0 15.0 0.00 0.00 0.00 82 1015.8
20260507115025 62 22 5.0 12.0 0.00 0.00 0.00 81 1015.8
20260507114504 62 26 5.0 13.0 0.00 0.00 0.00 81 1015.8
20260507114004 62 29 5.0 13.0 0.00 0.00 0.00 81 1015.5
20260507113504 63 25 5.0 12.0 0.00 0.00 0.00 81 1015.4
20260507113025 63 29 5.0 12.0 0.00 0.00 0.00 81 1015.4
20260507112505 63 27 5.0 12.0 0.00 0.00 0.00 81 1015.6
20260507112004 63 21 5.0 12.0 0.00 0.00 0.00 81 1015.4
20260507111506 63 16 4.0 13.0 0.00 0.00 0.00 81 1015.3
20260507111004 63 14 5.0 13.0 0.00 0.00 0.00 81 1015.3
20260507110525 63 15 5.0 14.0 0.00 0.00 0.00 81 1015.3
20260507110005 63 17 5.0 14.0 0.00 0.00 0.00 80 1015.2
20260507105504 63 19 4.0 11.0 0.00 0.00 0.00 81 1015.0
20260507105004 63 27 4.0 11.0 0.00 0.00 0.00 81 1015.1
20260507104504 63 29 5.0 11.0 0.00 0.00 0.00 81 1015.0
20260507104005 63 30 5.0 11.0 0.00 0.00 0.00 81 1014.9
20260507103504 63 30 4.0 10.0 0.00 0.00 0.00 81 1015.1
20260507103004 63 28 4.0 9.0 0.00 0.00 0.00 81 1015.0
20260507102504 63 28 4.0 11.0 0.00 0.00 0.00 81 1015.0
20260507102006 63 31 5.0 11.0 0.00 0.00 0.00 81 1014.9
20260507101504 63 34 5.0 12.0 0.00 0.00 0.00 81 1014.9
20260507101005 63 36 4.0 13.0 0.00 0.00 0.00 81 1014.9
20260507100504 63 31 4.0 13.0 0.00 0.00 0.00 81 1015.0
20260507100005 63 26 5.0 12.0 0.00 0.00 0.00 81 1014.6
20260507095504 63 28 5.0 12.0 0.00 0.00 0.00 81 1014.4
20260507095025 63 27 4.0 11.0 0.00 0.00 0.00 81 1014.5
20260507094525 63 25 4.0 10.0 0.00 0.00 0.00 81 1014.8
20260507094004 63 26 4.0 10.0 0.00 0.00 0.00 81 1014.7
20260507093504 63 27 4.0 9.0 0.00 0.00 0.00 81 1014.6
20260507093004 63 30 3.0 10.0 0.00 0.00 0.00 81 1014.9
20260507092505 63 31 4.0 10.0 0.00 0.00 0.00 81 1015.0
20260507092024 63 31 4.0 10.0 0.00 0.00 0.00 81 1015.2
20260507091504 63 29 3.0 10.0 0.00 0.00 0.00 81 1015.2
20260507091004 63 27 3.0 9.0 0.00 0.00 0.00 81 1015.1
20260507090504 63 32 3.0 7.0 0.00 0.00 0.00 81 1015.3
20260507090005 63 41 4.0 9.0 0.00 0.00 0.00 81 1015.0
20260507085504 63 38 5.0 10.0 0.00 0.00 0.00 80 1014.9
20260507085004 63 36 4.0 11.0 0.00 0.00 0.00 80 1015.0
20260507084504 63 32 4.0 11.0 0.00 0.00 0.00 80 1015.1
20260507084024 63 25 4.0 11.0 0.00 0.00 0.00 80 1015.0
20260507083504 63 27 4.0 11.0 0.00 0.00 0.00 80 1014.7
20260507083004 63 28 4.0 11.0 0.00 0.00 0.00 80 1014.4
20260507082504 63 30 3.0 8.0 0.00 0.00 0.00 80 1014.2
20260507082004 64 33 4.0 10.0 0.00 0.00 0.00 80 1014.2
20260507081504 64 23 4.0 10.0 0.00 0.00 0.00 80 1014.3
20260507081003 64 18 4.0 7.0 0.00 0.00 0.00 80 1014.3
20260507080504 64 18 4.0 9.0 0.00 0.00 0.00 80 1014.4
20260507080004 64 19 4.0 9.0 0.00 0.00 0.00 80 1014.5
20260507075503 64 27 4.0 9.0 0.00 0.00 0.00 80 1014.6
20260507075004 64 31 4.0 9.0 0.00 0.00 0.00 80 1014.6
20260507074504 64 25 4.0 9.0 0.00 0.00 0.00 80 1014.8
20260507074004 64 23 3.0 8.0 0.00 0.00 0.00 81 1015.0
20260507073504 64 32 4.0 10.0 0.00 0.00 0.00 81 1014.9
20260507073004 63 36 5.0 11.0 0.00 0.00 0.00 80 1014.9
20260507072504 64 37 5.0 11.0 0.00 0.00 0.00 80 1014.7
20260507072004 64 39 5.0 13.0 0.00 0.00 0.00 80 1014.7
20260507071525 64 40 5.0 13.0 0.00 0.00 0.00 80 1014.8
20260507071004 64 41 4.0 12.0 0.00 0.00 0.00 80 1014.9
20260507070504 64 39 4.0 12.0 0.00 0.00 0.00 80 1014.8
20260507070009 64 34 4.0 11.0 0.00 0.00 0.00 80 1015.0
20260507065504 64 31 4.0 11.0 0.00 0.00 0.00 80 1015.1
20260507065005 64 31 4.0 11.0 0.00 0.00 0.00 80 1015.0
20260507064504 64 30 4.0 10.0 0.00 0.00 0.00 80 1015.1
20260507064004 64 36 5.0 13.0 0.00 0.00 0.00 80 1015.1
20260507063503 64 40 5.0 13.0 0.00 0.00 0.00 80 1014.8
20260507063004 64 35 4.0 11.0 0.00 0.00 0.00 81 1015.0
20260507062504 64 37 4.0 11.0 0.00 0.00 0.00 80 1014.9
20260507062004 64 36 5.0 11.0 0.00 0.00 0.00 80 1015.0
20260507061504 64 32 5.0 10.0 0.00 0.00 0.00 80 1014.8
20260507061004 64 34 5.0 10.0 0.00 0.00 0.00 80 1014.8
20260507060504 64 33 4.0 10.0 0.00 0.00 0.00 81 1014.8
20260507060004 64 31 5.0 12.0 0.00 0.00 0.00 81 1014.6
20260507055504 64 36 5.0 12.0 0.00 0.00 0.00 81 1014.2
20260507055004 65 48 5.0 11.0 0.00 0.00 0.00 81 1014.0
20260507054505 65 51 4.0 10.0 0.00 0.00 0.00 81 1014.1
20260507054025 65 40 3.0 11.0 0.00 0.00 0.00 82 1014.2
20260507053503 64 39 4.0 11.0 0.00 0.00 0.00 81 1014.2
20260507053004 65 41 4.0 9.0 0.00 0.00 0.00 81 1014.1
20260507052504 65 37 4.0 9.0 0.00 0.00 0.00 81 1014.3
20260507052024 65 36 3.0 9.0 0.00 0.00 0.00 81 1014.3
20260507051524 65 34 3.0 11.0 0.00 0.00 0.00 81 1014.4
20260507051004 65 34 4.0 11.0 0.00 0.00 0.00 81 1014.3
20260507050504 65 34 4.0 9.0 0.00 0.00 0.00 81 1014.3
20260507050025 65 30 4.0 9.0 0.00 0.00 0.00 81 1014.7
20260507045503 65 29 4.0 9.0 0.00 0.00 0.00 81 1014.7
20260507045003 65 29 4.0 11.0 0.00 0.00 0.00 81 1014.6
20260507044504 65 23 4.0 11.0 0.00 0.00 0.00 81 1014.5
20260507044004 65 23 4.0 12.0 0.00 0.00 0.00 81 1014.5
20260507043504 65 31 4.0 12.0 0.00 0.00 0.00 81 1014.3
20260507043004 65 34 4.0 9.0 0.00 0.00 0.00 81 1014.3
20260507042505 65 27 5.0 9.0 0.00 0.00 0.00 81 1014.0
20260507042003 65 26 5.0 9.0 0.00 0.00 0.00 81 1014.0
20260507041525 65 30 4.0 9.0 0.00 0.00 0.00 81 1013.7
20260507041004 65 35 3.0 9.0 0.00 0.00 0.00 81 1013.6
20260507040504 65 40 4.0 9.0 0.00 0.00 0.00 81 1013.6
20260507040004 65 39 3.0 9.0 0.00 0.00 0.00 81 1013.6
20260507035525 65 34 4.0 9.0 0.00 0.00 0.00 81 1013.5
20260507035003 65 33 4.0 8.0 0.00 0.00 0.00 80 1013.5
20260507034504 65 30 3.0 11.0 0.00 0.00 0.00 80 1013.5
20260507034004 65 29 4.0 11.0 0.00 0.00 0.00 80 1013.6
20260507033525 65 28 3.0 10.0 0.00 0.00 0.00 80 1013.7
20260507033004 65 19 4.0 9.0 0.00 0.00 0.00 80 1013.6
20260507032504 65 20 4.0 10.0 0.00 0.00 0.00 80 1013.6
20260507032004 65 25 4.0 10.0 0.00 0.00 0.00 80 1013.4
20260507031504 65 19 3.0 9.0 0.00 0.00 0.00 80 1013.4
20260507031004 65 18 3.0 8.0 0.00 0.00 0.00 80 1013.4
20260507030503 65 18 3.0 9.0 0.00 0.00 0.00 80 1013.3
20260507030024 65 15 4.0 12.0 0.00 0.00 0.00 80 1013.3
20260507025504 65 17 4.0 12.0 0.00 0.00 0.00 80 1013.2
20260507025003 65 13 4.0 10.0 0.00 0.00 0.00 80 1013.1
20260507024504 65 9 5.0 11.0 0.00 0.00 0.00 80 1013.4
20260507024004 65 12 5.0 11.0 0.00 0.00 0.00 80 1013.1
20260507023503 65 13 5.0 10.0 0.00 0.00 0.00 80 1012.9
20260507023003 65 18 5.0 10.0 0.00 0.00 0.00 80 1012.9
20260507022504 66 21 4.0 11.0 0.00 0.00 0.00 80 1012.7
20260507022004 66 18 5.0 12.0 0.00 0.00 0.00 80 1012.8
20260507021503 66 17 5.0 12.0 0.00 0.00 0.00 79 1012.7
20260507021003 66 17 4.0 10.0 0.00 0.00 0.00 79 1012.8
20260507020504 66 18 4.0 11.0 0.00 0.00 0.00 79 1012.4
20260507020024 66 19 4.0 11.0 0.00 0.00 0.00 79 1012.2
20260507015525 66 21 5.0 11.0 0.00 0.00 0.00 79 1012.5
20260507015025 66 21 5.0 13.0 0.00 0.00 0.00 79 1012.0
20260507014525 66 22 4.0 13.0 0.00 0.00 0.00 79 1012.1
20260507014004 66 22 4.0 10.0 0.00 0.00 0.00 79 1011.9
20260507013503 66 22 4.0 13.0 0.00 0.00 0.00 79 1012.1
20260507013003 67 16 5.0 13.0 0.00 0.00 0.00 78 1012.0
20260507012505 67 12 5.0 13.0 0.00 0.00 0.00 78 1011.9
20260507012004 67 15 5.0 13.0 0.00 0.00 0.00 78 1011.9
20260507011505 67 13 4.0 10.0 0.00 0.00 0.00 77 1012.0
20260507011004 67 13 5.0 10.0 0.00 0.00 0.00 77 1011.6
20260507010526 67 15 5.0 10.0 0.00 0.00 0.00 77 1011.5
20260507010005 68 17 6.0 12.0 0.00 0.00 0.00 77 1011.3
20260507005505 68 12 6.0 12.0 0.00 0.00 0.00 76 1011.2
20260507005005 68 13 6.0 11.0 0.00 0.00 0.00 76 1011.3
20260507004504 68 19 6.0 11.0 0.00 0.00 0.00 76 1011.3
20260507004005 69 18 6.0 15.0 0.00 0.00 0.00 75 1011.1
20260507003506 69 14 6.0 15.0 0.00 0.00 0.00 75 1011.1
20260507003025 69 16 5.0 14.0 0.00 0.00 0.00 75 1011.1
20260507002504 69 13 6.0 14.0 0.00 0.00 0.00 75 1011.0
20260507002004 70 11 6.0 14.0 0.00 0.00 0.00 75 1010.9
20260507001526 70 15 6.0 13.0 0.00 0.00 0.00 74 1010.6
20260507001005 71 19 6.0 14.0 0.00 0.00 0.00 74 1010.5
20260507000505 71 22 5.0 14.0 0.00 0.00 0.00 73 1010.5
20260507000005 72 26 5.0 11.0 0.00 0.00 0.00 74 1010.3
20260506235505 72 22 6.0 12.0 0.00 0.00 0.00 74 1010.4
20260506235005 72 17 6.0 12.0 0.00 0.00 0.00 73 1010.4
20260506234505 72 23 6.0 12.0 0.00 0.00 0.00 73 1010.3
20260506234005 73 24 6.0 12.0 0.00 0.00 0.00 73 1010.2
20260506233505 73 18 5.0 12.0 0.00 0.00 0.00 72 1010.2
20260506233005 74 13 5.0 11.0 0.00 0.00 0.00 72 1010.1
20260506232505 74 14 6.0 12.0 0.00 0.00 0.00 72 1010.1
20260506232004 75 16 6.0 12.0 0.00 0.00 0.00 72 1010.0
20260506231505 75 16 6.0 13.0 0.00 0.00 0.00 72 1009.9
20260506231004 76 22 6.0 13.0 0.00 0.00 0.00 71 1010.0
20260506230525 76 33 7.0 15.0 0.00 0.00 0.00 72 1009.9
20260506230004 76 31 7.0 16.0 0.00 0.00 0.00 72 1009.8
20260506225504 77 29 7.0 16.0 0.00 0.00 0.00 72 1009.6
20260506225026 77 31 6.0 15.0 0.00 0.00 0.00 72 1009.4
20260506224504 77 26 7.0 15.0 0.00 0.00 0.00 72 1009.4
20260506224005 78 25 7.0 15.0 0.00 0.00 0.00 72 1009.3
20260506223505 78 32 7.0 14.0 0.00 0.00 0.00 72 1009.2
20260506223005 78 37 7.0 16.0 0.00 0.00 0.00 72 1009.1
20260506222504 79 35 6.0 16.0 0.00 0.00 0.00 72 1009.1
20260506222004 80 33 6.0 13.0 0.00 0.00 0.00 73 1009.2
20260506221526 80 35 6.0 12.0 0.00 0.00 0.00 74 1009.0
20260506221005 80 30 7.0 13.0 0.00 0.00 0.00 73 1009.0
20260506220504 81 31 6.0 13.0 0.00 0.00 0.00 72 1009.0
20260506220005 82 36 5.0 11.0 0.00 0.00 0.00 74 1008.9
20260506215505 82 36 5.0 11.0 0.00 0.00 0.00 73 1008.9
20260506215006 82 39 5.0 11.0 0.00 0.00 0.00 73 1008.8
20260506214504 82 43 5.0 10.0 0.00 0.00 0.00 74 1008.9
20260506214005 82 40 5.0 11.0 0.00 0.00 0.00 74 1008.8
20260506213526 82 35 6.0 11.0 0.00 0.00 0.00 73 1008.7
20260506213004 82 35 6.0 11.0 0.00 0.00 0.00 74 1008.6
20260506212525 83 33 5.0 11.0 0.00 0.00 0.00 73 1008.7
20260506212025 83 34 5.0 10.0 0.00 0.00 0.00 75 1008.7
20260506211504 82 41 5.0 11.0 0.00 0.00 0.00 75 1008.8
20260506211006 82 47 4.0 11.0 0.00 0.00 0.00 76 1008.8
20260506210525 82 42 4.0 11.0 0.00 0.00 0.00 75 1009.0
20260506210005 82 39 5.0 11.0 0.00 0.00 0.00 75 1008.9
20260506205504 82 40 4.0 10.0 0.00 0.00 0.00 75 1008.9
20260506205004 82 39 5.0 10.0 0.00 0.00 0.00 74 1009.0
20260506204504 82 34 5.0 10.0 0.00 0.00 0.00 75 1009.1
20260506204005 83 31 5.0 10.0 0.00 0.00 0.00 74 1009.0
20260506203504 83 33 4.0 14.0 0.00 0.00 0.00 75 1009.1
20260506203005 83 32 5.0 14.0 0.00 0.00 0.00 75 1009.2
20260506202505 83 29 5.0 11.0 0.00 0.00 0.00 74 1009.1
20260506202026 84 31 4.0 10.0 0.00 0.00 0.00 74 1009.1
20260506201504 84 46 4.0 10.0 0.00 0.00 0.00 74 1009.0
20260506201004 84 61 5.0 10.0 0.00 0.00 0.00 75 1009.0
20260506200526 84 71 5.0 10.0 0.00 0.00 0.00 75 1009.0
20260506200004 84 75 3.0 10.0 0.00 0.00 0.00 73 1009.0